This is the latest recevied weather packets stored in our database for station/object KI5RAB. If no packets are shown the sender has not sent any weather packets the latest 10 day(s).
| Time | Temp. | Humidity | Pressure | Rain* | Wind** | Luminosity | Snow |
|---|---|---|---|---|---|---|---|
| 1777656692 | 16.11° C | 97% | 1014.9 hPa | 0 mm | - | 142 W/m² | - |
| 1777656388 | 16.11° C | 97% | 1015.4 hPa | 0 mm | - | 72 W/m² | - |
| 1777656083 | 16.11° C | 97% | 1015.5 hPa | 1.27 mm | - | 97 W/m² | - |
| 1777655779 | 16.67° C | 97% | 1015.5 hPa | 1.27 mm | - | 31 W/m² | - |
| 1777655475 | 16.67° C | 97% | 1014.8 hPa | 0 mm | - | 69 W/m² | - |
| 1777655173 | 16.67° C | 97% | 1014.6 hPa | 0 mm | - | 81 W/m² | - |
| 1777654870 | 16.67° C | 96% | 1014.2 hPa | 0 mm | - | 68 W/m² | - |
| 1777654567 | 16.67° C | 96% | 1014 hPa | 1.78 mm | - | 40 W/m² | - |
| 1777654264 | 16.67° C | 96% | 1014.1 hPa | 6.6 mm | - | 20 W/m² | - |
| 1777653962 | 16.67° C | 95% | 1013.9 hPa | 14.99 mm | - | 19 W/m² | - |
| 1777653658 | 17.22° C | 94% | 1013.9 hPa | 11.94 mm | - | 15 W/m² | - |
| 1777653355 | 17.22° C | 93% | 1013.9 hPa | 0 mm | - | 16 W/m² | - |
| 1777653052 | 17.78° C | 92% | 1014.1 hPa | 0 mm | - | 12 W/m² | - |
| 1777652748 | 17.78° C | 92% | 1014.2 hPa | 0 mm | - | 31 W/m² | - |
| 1777652445 | 17.78° C | 92% | 1013.7 hPa | 0 mm | - | 79 W/m² | - |
| 1777652142 | 17.78° C | 93% | 1013.7 hPa | 0 mm | - | 161 W/m² | - |
| 1777651833 | 17.78° C | 95% | 1013.6 hPa | 0 mm | - | 223 W/m² | - |
| 1777651531 | 17.22° C | 96% | 1013.5 hPa | 0 mm | - | 378 W/m² | - |
| 1777651227 | 17.22° C | 97% | 1013.9 hPa | 0 mm | - | 241 W/m² | - |
| 1777650918 | 17.22° C | 97% | 1014 hPa | 0 mm | - | 265 W/m² | - |
| 1777650615 | 16.67° C | 97% | 1014.1 hPa | 0 mm | - | 423 W/m² | - |
| 1777650313 | 16.67° C | 97% | 1014 hPa | 0 mm | - | 194 W/m² | - |
| 1777650010 | 16.67° C | 97% | 1014.3 hPa | 0 mm | - | 205 W/m² | - |
| 1777649708 | 16.67° C | 98% | 1014.1 hPa | 0 mm | - | 329 W/m² | - |
| 1777649402 | 16.67° C | 98% | 1014.3 hPa | 0 mm | - | 305 W/m² | - |
* Rain latest hour (hover to see other rain measurements)
** Current wind speed in m/s (hover to see current wind gust speed)